{"data":{"norad_id":60440,"intl_designator":"2024-144R","name":"STARLINK-32195","alt_names":[],"object_type":"PAYLOAD","status":"ACTIVE","operator":null,"country":"US","launch_date":"2024-08-12","launch_site_code":"AFETR","launch_vehicle":null,"mission":null,"orbit_class":"UNKNOWN","rcs_meters":null,"size_class":null,"mass_kg":null,"dimensions":null,"purposes":["comms"],"wikipedia_slug":null,"has_3d_model":false,"image_url":null,"decayed_at":null,"tle_current":{"epoch":"2026-05-24T21:52:34.883040Z","epoch_age_seconds":85935,"freshness":"FRESH","line1":"1 60440U 24144R   26144.91151485  .00000098  00000+0  14051-4 0  9991","line2":"2 60440  53.1618 222.0557 0001147  93.6591 266.4543 15.34390020100995","mean_motion":15.3439002,"eccentricity":0.0001147,"inclination_deg":53.1618,"raan_deg":222.0557,"arg_perigee_deg":93.6591,"mean_anomaly_deg":266.4543,"bstar":1.4051e-5,"rev_number":10099,"period_min":93.848368487173,"perigee_km":461.94825525319,"apogee_km":463.51755080895,"semimajor_km":6840.8699030311,"source":"CELESTRAK","updated_at":"2026-05-25T13:38:19.275864Z"}}}